User: anonymous   Login
Location: Lawrence
(38.9720°N, 95.2350°W)
Time: 00:08:58
(UTC-06:00)
Language:

JAS-1B - Orbit

View from above orbital plane
View from above orbital plane
View from above satellite
View from above satellite

Ground track
Ground track

The orbit data is extracted from the following two-line orbital elements,

1 20480U 90013C   18055.19801235 -.00000031 +00000-0 +56265-6 0  9990
2 20480 099.0688 146.5023 0540441 180.4392 179.6301 12.83419008314003
Epoch (UTC): 24 February 2018 04:45:08
Eccentricity: 0.0540441
inclination: 99.0688°
perigee height: 911 km
apogee height: 1744 km
right ascension of ascending node: 146.5023°
argument of perigee: 180.4392°
revolutions per day: 12.83419008
mean anomaly at epoch: 179.6301°
orbit number at epoch: 31400

The dashed part of the orbit path shows where the satellite is in the earth's shadow,  

DLR